Weather in Kasimov

Russia / Ryazan Oblast     54°56′14″N   41°23′28″E
temp.,
°C
wind,
m/s
gust,
m/s
humid.,
%
clouds,
%
prec.,
mm/h
press.,
hPa
HPBL,
m
7 march, sun
sun700:00−13wsw349512 0.0 101443
03:00−14wsw34946 0.0 101269
06:00−14ssw499333 0.0 1010162
09:00−8ssw7158567 0.0 1006600
12:00−6sw91593100 0.7 10011028
15:00−4sw91593100 2.4 9971181
18:00−3sw81494100 1.4 994893
21:00−2sw71495100 2.8 991901
8 march, mon
mon800:00−9nw358381 0.2 99279
03:00−7wsw5119474 0.6 995495
06:00−9w51191100 0.4 997364
09:00−9wsw5109384 0.4 998360
12:00−5wsw5887100 0.1 9981019
15:00−5w6978100 0.9 9991223
18:00−9w3587100 0.2 100184
21:00−11nw479350 0.2 1005141
9 march, tue
tue900:00−14wnw47960 0.0 1007114
03:00−16nw34970 0.0 100956
06:00−18nw349886 0.0 101155
09:00−14nw359489 0.1 1012246
12:00−11nnw358796 0.1 1014560
15:00−10nw458698 0.1 1015748
18:00−15nw4693100 0.1 1016139
21:00−20nw469780 0.1 101892
10 march, wed
wed1000:00−22nnw349960 0.0 101973
03:00−24nw349830 0.0 102173
06:00−26nnw34980 0.0 102375
09:00−23nnw36950 0.0 1024249
12:00−18nnw358454 0.0 1026526
15:00−15nnw358057 0.0 1026752
18:00−19nw238967 0.0 102621
21:00−22nw339233 0.0 102820
11 march, thu
thu1100:00−23wnw23890 0.0 102820
03:00−23w33950 0.0 102929
06:00−23w34940 0.0 102942
09:00−19w35900 0.0 1029189
12:00−13wsw34800 0.0 1029330
15:00−10sw35770 0.0 1028400
18:00−14s34900 0.0 102748
21:00−16s489644 0.0 1027150